GFSSGP_850_spd_294.txt.gz
Wind_Speed
5 4 4 1 4 4 4 4 1 5 5 3 5 0 3 6 4 3 11 14 15 15 14 13 12 11 11 11 11 11 10 10 11 13 14 14 15 13 14 15 16 17 17 17 17 18 18 17 17
7 6 3 2 4 5 5 3 5 5 4 7 6 3 2 4 5 11 14 16 16 14 13 12 12 11 11 11 10 11 9 10 11 12 13 13 13 13 14 14 15 15 16 16 16 16 16 16 16
8 7 3 2 2 3 3 4 6 6 8 4 4 2 2 4 7 14 10 19 16 13 13 13 12 11 11 11 10 10 10 10 10 11 11 12 12 12 12 12 13 13 14 14 14 14 14 14 14
7 4 1 5 4 3 3 6 8 11 4 2 2 5 4 5 12 7 17 19 16 14 12 13 12 12 11 11 10 10 10 9 9 10 10 10 10 10 10 11 11 11 11 11 12 11 11 11 11
7 3 4 3 4 3 2 4 9 9 5 5 5 4 4 7 12 14 18 16 15 14 12 12 11 10 11 11 10 9 10 9 8 9 8 8 8 9 9 9 9 8 8 8 8 8 8 9 9
4 2 6 7 6 5 4 10 10 5 5 6 5 8 6 11 15 19 17 16 13 14 13 13 13 12 11 11 10 9 10 8 8 7 7 6 6 7 7 7 7 6 5 5 5 6 7 7 7
3 3 4 4 7 6 6 12 8 8 7 6 4 6 7 12 16 19 18 16 13 13 15 15 14 13 12 12 11 10 9 8 7 6 5 5 5 5 5 4 4 3 2 2 3 4 5 6 6
4 2 5 4 8 6 9 12 5 8 7 6 5 4 6 17 20 21 20 17 14 13 13 14 13 13 13 12 11 10 9 8 7 5 4 4 4 3 2 1 1 1 1 1 1 2 3 4 5
7 4 8 8 8 6 11 10 5 4 5 5 7 2 6 22 22 22 21 19 17 14 14 15 15 13 13 12 12 12 10 8 7 6 5 3 2 2 3 2 2 2 2 1 1 2 2 3 3
6 6 9 4 6 6 14 11 11 7 8 6 7 8 9 23 23 26 26 25 22 18 16 15 17 15 15 13 12 11 10 7 7 5 4 3 3 3 3 2 3 2 2 2 2 3 3 4 4
5 6 6 7 7 6 13 9 9 8 7 10 13 14 14 24 24 25 24 22 21 19 17 16 17 16 14 13 12 11 9 8 7 5 3 3 2 2 3 2 1 0 2 2 4 5 4 4 4
5 4 7 8 7 8 11 10 7 9 2 4 8 13 17 22 24 25 23 21 20 19 16 15 18 17 15 13 12 11 10 9 7 6 5 5 2 3 3 3 1 1 3 5 5 4 5 5 5
4 6 6 6 9 6 9 6 4 5 4 7 5 13 17 18 18 18 18 18 17 16 16 15 17 17 16 14 14 12 11 10 9 7 6 6 4 3 3 1 0 1 2 3 4 4 5 6 7
10 7 6 6 8 5 7 4 4 3 1 7 10 10 15 17 18 18 19 18 18 15 15 14 15 16 16 14 13 12 11 10 8 8 7 6 5 4 4 3 1 2 3 4 5 7 7 8 8
7 7 3 7 8 4 6 3 5 2 4 5 10 9 12 16 17 18 18 17 16 16 16 15 14 14 14 13 12 11 11 9 8 7 7 6 6 5 4 5 4 5 5 6 7 8 8 9 9
7 4 7 7 8 4 7 8 7 2 3 7 6 9 12 15 17 17 17 18 18 16 17 16 14 14 13 13 12 11 9 9 9 8 6 5 5 4 3 5 6 7 7 8 9 9 10 10 10
6 11 13 5 10 5 10 5 10 2 5 6 6 5 8 13 17 17 18 19 19 18 17 18 16 15 14 13 13 12 10 10 9 8 7 6 5 5 3 4 6 7 8 9 9 10 10 11 12
14 8 8 10 9 7 10 5 9 3 3 4 3 3 4 7 13 19 21 22 22 21 20 19 18 17 16 15 14 13 11 11 9 8 8 8 6 5 5 5 6 7 8 10 11 11 12 12 13
10 13 11 3 6 8 13 8 10 1 2 2 1 1 2 6 11 14 19 22 24 24 24 22 22 20 20 19 17 15 11 10 9 8 8 7 6 6 6 7 7 8 9 10 11 12 13 14 14
9 12 7 4 4 3 5 11 5 2 2 1 1 1 1 4 8 11 14 18 23 27 26 25 23 22 22 20 17 14 11 9 9 8 7 7 6 6 7 7 8 9 10 10 11 12 14 15 14
7 12 10 4 7 2 3 7 7 4 5 3 2 1 1 2 6 9 11 14 19 25 28 27 25 24 23 22 19 16 12 9 8 8 6 5 5 5 6 7 9 10 11 12 12 13 14 15 17
14 6 9 12 11 5 3 6 7 9 8 6 4 3 2 3 3 6 9 13 17 22 26 28 27 26 25 23 20 18 14 10 10 8 5 2 1 5 7 9 11 11 13 13 14 15 15 17 17
6 10 9 6 4 2 6 4 6 5 11 12 10 6 4 4 6 5 7 9 13 17 23 26 27 26 25 23 22 20 16 13 10 8 7 6 8 7 10 13 17 20 14 14 15 17 19 20 21
19 12 9 5 2 3 11 9 8 8 8 15 13 10 7 6 7 8 9 10 11 13 17 22 25 27 25 24 23 20 19 17 14 12 10 9 10 13 14 18 21 16 16 18 20 21 22 23 25
7 17 4 4 4 6 3 7 11 6 3 9 17 14 11 9 10 11 14 15 15 15 16 17 18 21 20 20 20 19 18 17 15 13 11 10 12 15 17 19 17 17 18 20 22 23 25 25 26
18 16 6 8 6 7 3 8 4 2 2 10 16 15 13 11 11 14 16 18 20 20 20 19 19 20 18 17 17 17 16 15 12 10 9 9 14 15 13 12 12 14 16 18 20 22 24 25 26
9 9 3 7 2 3 6 6 4 6 7 14 17 16 14 13 13 16 18 19 20 21 22 21 21 20 19 17 16 14 13 11 8 7 6 6 7 7 8 10 11 13 15 17 18 20 21 23 25
6 13 5 3 9 6 6 5 6 12 16 15 17 20 17 15 16 17 18 19 20 20 21 21 20 20 19 17 16 14 12 9 6 4 1 2 5 8 11 13 15 16 18 20 21 22 23 25 25
5 7 4 4 4 8 7 6 4 12 19 21 23 23 22 20 18 19 21 22 22 22 22 22 21 20 19 17 15 12 10 7 4 3 5 6 8 10 12 15 17 19 21 23 24 25 26 27 27
7 11 18 8 7 2 1 5 2 2 16 26 26 25 23 23 22 21 22 22 22 22 21 20 19 18 16 14 12 9 7 5 3 2 3 5 8 11 14 16 18 20 21 23 24 25 26 26 27

GFSSGP_850_spd_297.txt.gz
Wind_Speed
5 5 3 2 6 6 2 5 3 7 6 5 5 5 10 13 9 5 13 11 15 15 12 12 11 10 9 10 10 10 10 11 12 12 13 11 10 12 13 15 15 16 17 17 16 17 17 17 17
5 6 3 4 7 8 7 6 5 6 8 7 6 2 3 10 9 14 13 15 16 15 12 10 12 11 9 10 10 9 9 10 11 12 13 13 12 12 14 15 16 15 15 15 16 16 16 16 16
8 8 5 4 8 5 6 5 10 9 7 4 4 4 3 7 10 11 12 17 15 13 12 12 11 11 10 9 9 9 9 10 11 11 12 11 11 11 12 13 13 13 13 13 13 13 14 14 14
4 3 5 8 10 4 5 7 11 10 5 3 2 8 6 5 9 8 17 17 15 13 11 13 12 11 11 10 8 8 9 9 10 10 10 9 9 9 10 11 11 11 11 11 11 11 11 12 12
6 5 7 10 3 4 4 7 10 9 9 9 6 6 6 7 9 15 17 16 15 14 11 14 12 10 10 9 8 8 8 7 8 8 8 8 8 8 8 7 8 8 9 8 9 9 9 9 9
6 6 7 10 9 6 6 9 8 6 7 8 6 10 7 10 14 16 16 15 15 14 12 12 12 11 10 10 9 8 8 7 7 6 6 6 6 7 6 5 5 5 5 5 6 7 7 8 8
9 8 11 11 10 8 6 11 10 7 7 8 5 9 8 13 16 17 16 14 14 13 13 11 12 12 11 10 10 9 8 7 6 5 5 5 5 5 4 4 3 2 2 3 4 5 6 7 7
7 5 9 7 10 9 10 12 6 7 8 8 5 6 10 18 19 18 16 14 13 13 13 12 10 10 9 11 10 10 9 7 5 4 4 4 3 3 2 1 1 0 1 2 3 4 4 5 5
4 6 10 12 9 9 14 10 7 4 8 6 7 3 10 22 21 20 18 15 13 13 13 13 12 11 10 9 11 10 9 7 5 4 4 5 3 3 1 1 1 1 2 2 2 3 4 5 6
8 9 14 8 7 8 16 13 12 8 10 9 9 9 18 22 22 21 20 18 16 14 14 13 13 13 12 10 9 6 7 4 4 2 4 3 2 4 2 1 2 2 3 4 4 5 5 8 4
8 11 8 4 4 4 15 12 12 9 11 11 15 15 20 23 21 21 19 18 17 15 18 16 14 13 11 9 10 7 6 7 6 5 4 3 2 4 3 4 4 4 5 4 6 5 3 3 1
8 15 5 6 7 8 14 12 9 11 6 4 7 18 20 25 22 21 20 19 19 21 16 19 16 14 13 11 10 8 8 7 6 6 6 4 3 4 4 3 1 1 1 3 2 2 4 5 5
13 7 7 6 8 8 10 12 8 11 5 4 8 16 19 20 20 19 19 18 20 20 18 17 18 14 14 12 11 10 8 8 7 7 6 8 5 4 3 2 1 2 1 1 3 3 4 4 5
15 7 9 9 11 8 10 7 5 9 6 7 8 15 17 18 19 19 19 19 19 19 18 17 18 15 14 13 12 10 9 8 8 7 6 6 5 4 4 3 2 1 1 2 3 4 5 6 7
8 10 7 9 12 6 8 8 11 9 6 8 13 13 16 18 18 19 19 18 18 16 16 18 18 17 16 14 13 12 11 9 8 7 8 6 5 4 3 4 3 4 5 5 5 6 8 8 8
10 10 9 14 12 7 9 14 14 7 9 11 14 14 15 16 19 18 18 18 18 17 18 18 17 18 16 15 14 12 11 10 8 7 7 8 7 7 4 4 4 7 6 6 6 6 7 8 9
15 11 18 9 15 6 13 9 12 6 10 12 12 13 14 15 16 17 17 18 18 18 19 19 18 18 18 16 14 12 12 11 9 8 8 7 7 6 4 3 4 6 5 6 7 7 9 9 10
17 16 19 14 14 11 14 10 10 6 10 11 12 11 12 15 15 15 15 16 18 18 19 19 18 18 18 16 13 12 11 10 9 9 8 8 7 6 4 4 4 5 5 6 8 8 9 11 12
15 20 14 17 9 13 16 16 11 10 9 10 10 11 11 12 12 17 19 23 20 19 20 20 20 19 19 17 15 13 12 11 11 10 11 9 7 7 6 5 5 6 6 6 9 10 12 11 14
12 17 18 7 7 9 14 16 11 10 10 9 9 10 10 11 9 10 14 18 22 21 21 21 20 20 20 17 15 12 11 9 8 10 9 9 8 6 6 6 6 7 8 9 10 11 11 12 14
13 17 15 7 9 7 6 12 15 11 10 9 8 8 8 10 10 8 11 15 19 24 20 21 21 20 21 18 17 15 14 12 12 10 8 7 6 5 5 5 6 8 10 11 12 12 12 12 10
17 6 6 11 13 6 12 7 21 17 15 13 13 11 9 8 8 9 9 12 16 22 24 19 20 21 21 20 20 17 14 10 9 9 9 6 3 3 5 6 8 10 14 14 12 13 14 15 15
9 11 9 11 12 1 8 5 4 15 14 16 17 14 11 8 7 6 11 13 15 17 22 21 19 21 21 22 19 17 14 16 15 13 9 7 6 7 9 10 12 16 18 16 13 14 15 15 18
17 14 10 5 3 5 12 11 11 9 15 17 18 16 12 9 8 6 8 10 13 17 21 27 27 26 25 23 20 19 21 17 16 14 12 11 8 8 11 13 15 17 15 13 13 15 17 18 20
15 17 4 5 3 7 2 9 10 8 5 5 18 18 14 11 10 8 8 10 11 13 17 23 24 26 26 26 26 24 22 19 17 14 12 11 10 10 10 13 14 12 11 12 13 15 16 17 19
19 18 6 9 8 8 3 8 5 6 5 6 18 17 14 13 11 11 11 13 14 15 17 19 20 22 23 23 22 21 19 19 18 16 14 11 10 8 9 9 8 9 10 12 14 15 16 18 20
15 19 4 2 3 7 7 7 5 6 7 14 19 20 18 15 13 13 13 15 16 18 18 18 19 21 20 20 19 20 19 17 15 13 10 7 4 4 4 5 7 9 10 12 14 15 16 17 19
9 13 8 4 9 7 8 10 8 12 16 17 19 21 20 18 16 15 15 16 18 19 20 20 21 21 21 20 20 19 16 14 11 9 7 5 3 2 3 5 8 10 13 15 17 19 20 21 21
6 11 8 6 8 7 8 7 3 14 18 19 21 24 23 20 18 17 16 16 18 19 20 20 20 20 19 18 17 16 15 14 11 9 6 4 1 3 6 8 11 14 17 19 21 22 23 23 24
18 16 20 8 9 4 5 10 2 4 14 22 23 24 23 22 21 19 18 18 17 17 19 19 20 20 20 19 18 16 15 12 10 7 4 2 2 5 8 11 14 16 18 20 21 22 22 24 24

GFSSGP_850_spd_300.txt.gz
Wind_Speed
6 7 5 2 1 3 7 4 8 7 6 8 13 12 13 20 7 9 17 17 16 10 15 14 13 12 12 12 12 13 12 11 12 12 10 11 12 15 16 16 17 17 18 19 19 19 19 19 19
8 4 4 5 3 5 2 9 7 10 13 12 8 5 14 8 16 20 17 17 17 11 14 14 13 13 11 12 11 12 12 12 12 13 13 13 15 15 15 16 17 17 16 17 17 17 17 17 18
9 8 4 3 4 4 4 7 10 14 10 8 5 13 8 9 10 13 20 21 17 13 11 12 13 13 12 11 11 11 11 12 13 12 12 12 13 13 14 14 14 14 14 14 15 15 16 16 16
6 2 6 3 10 5 8 10 17 11 7 5 16 9 9 10 8 17 22 20 19 16 13 10 13 12 12 10 10 11 11 12 11 11 11 11 11 11 12 12 12 12 12 12 12 13 13 13 14
8 5 3 5 8 6 7 15 16 9 12 9 5 9 10 12 15 23 22 19 20 14 11 15 14 12 12 11 10 10 10 10 10 10 9 10 10 9 10 10 10 10 10 10 11 11 12 12 12
3 5 3 6 8 7 7 10 12 11 12 12 13 15 9 13 20 21 21 19 18 13 13 16 14 13 12 11 10 9 9 9 9 9 9 9 8 8 8 7 7 7 7 8 9 9 10 10 11
2 3 6 8 6 7 7 12 7 12 14 8 16 6 14 17 20 21 19 18 17 11 13 15 15 14 13 12 11 10 9 9 8 7 7 7 7 6 5 5 4 5 5 6 7 7 8 9 10
4 3 6 7 8 6 9 12 7 13 7 16 9 7 11 22 22 21 19 18 15 16 8 12 14 12 11 12 12 11 9 8 8 7 7 7 6 4 2 2 2 3 4 4 5 7 8 8 9
3 3 5 9 3 7 19 6 4 9 17 8 4 11 21 27 24 22 20 18 16 16 13 11 8 12 9 10 10 9 8 7 6 6 7 7 5 3 2 3 3 3 4 5 5 6 7 8 9
5 2 5 7 5 9 17 16 11 6 15 12 11 19 28 27 26 25 23 20 17 18 17 15 12 10 12 7 8 7 7 5 5 6 6 6 4 2 1 2 3 4 4 5 5 5 4 6 6
6 5 10 4 10 10 16 10 15 10 7 16 21 28 25 27 26 25 22 20 18 18 17 15 16 14 13 9 9 8 6 6 6 6 6 5 3 3 3 4 6 5 8 5 6 8 4 1 3
4 14 5 4 3 2 10 14 10 10 6 14 23 27 28 28 26 25 25 22 20 22 23 22 17 15 13 11 11 9 8 6 6 5 6 4 3 6 4 1 3 3 2 4 3 2 7 7 7
8 5 10 6 3 4 13 9 8 11 12 15 22 26 25 28 25 24 21 22 23 24 24 24 20 16 16 13 13 11 11 11 7 9 6 9 4 4 6 4 2 4 1 2 2 2 3 3 6
13 14 7 9 8 2 3 5 7 12 14 11 21 24 19 23 25 20 21 21 24 24 19 25 22 16 19 14 17 14 10 11 11 8 5 11 7 5 4 3 4 3 3 3 4 5 6 6 7
12 6 6 7 13 5 8 3 6 16 13 14 16 21 20 18 21 24 25 25 25 20 20 20 23 19 18 19 17 17 14 14 13 11 7 5 6 5 4 4 4 4 5 4 4 5 7 8 8
5 6 6 9 12 5 6 6 11 15 15 15 18 19 20 21 21 21 21 20 17 17 19 20 22 23 19 19 16 17 16 13 9 8 10 10 7 5 5 2 2 7 7 6 5 8 8 8 10
8 6 9 7 13 6 6 6 8 17 15 17 20 19 19 19 20 21 20 20 18 16 15 18 20 22 21 19 15 14 12 12 11 9 7 6 6 5 3 2 2 8 5 6 8 8 9 10 11
7 7 9 9 9 6 9 3 5 9 12 14 18 18 18 20 21 20 18 19 18 19 18 18 19 19 20 18 16 14 13 14 11 9 7 7 7 5 6 4 6 5 4 5 7 9 10 12 13
8 9 10 8 10 9 10 8 9 9 9 13 18 20 18 20 24 26 26 25 21 20 20 21 19 20 20 20 18 16 14 14 14 13 10 8 7 8 7 6 5 4 4 5 8 9 9 11 13
11 8 11 7 9 6 9 9 9 11 9 12 14 18 20 19 22 24 27 28 28 24 20 21 19 18 21 20 17 13 12 11 12 14 13 14 11 7 7 6 6 6 6 7 9 11 10 10 12
9 8 8 7 6 3 2 8 6 8 10 10 12 12 19 16 16 19 22 24 29 28 24 21 22 20 19 18 17 15 14 14 14 14 12 11 9 6 5 4 3 5 8 10 11 11 11 12 10
10 6 1 14 7 4 8 4 10 11 9 9 15 16 18 20 17 15 16 19 23 30 30 24 22 22 21 20 20 20 20 18 16 12 12 10 7 3 2 5 7 8 10 13 11 11 11 12 12
5 6 7 6 8 3 3 2 4 15 8 9 18 22 20 16 18 18 20 21 22 25 32 31 25 23 23 22 22 23 18 14 15 15 13 11 4 4 4 7 10 11 12 10 9 9 10 11 13
5 8 6 3 4 0 7 7 5 11 14 17 17 23 21 20 19 19 18 19 19 23 31 31 26 26 25 25 24 20 21 23 19 16 14 11 11 9 8 11 10 12 11 9 8 9 10 11 13
9 8 2 1 0 5 2 6 6 4 3 6 20 28 23 19 17 15 15 16 18 20 26 27 27 29 29 29 26 26 25 23 20 18 16 14 13 11 9 7 8 8 6 6 7 8 10 11 14
12 12 5 6 5 5 2 5 5 3 6 15 28 29 23 19 16 15 14 14 15 17 22 25 29 31 30 29 28 27 26 24 21 20 18 16 12 9 7 5 4 4 5 7 8 10 11 13 14
8 13 4 4 2 4 5 4 1 4 4 13 22 28 25 22 18 17 16 16 16 17 19 23 26 28 27 27 28 27 25 24 22 20 17 13 10 7 5 3 3 4 7 8 10 11 12 13 15
6 6 7 1 7 5 4 7 6 6 10 9 13 22 26 24 21 19 19 19 18 19 20 21 22 23 24 25 25 24 23 22 20 18 14 12 9 7 4 2 3 5 7 9 11 13 15 16 18
3 7 4 6 5 6 3 5 3 15 17 19 15 23 26 25 23 22 22 21 21 22 21 24 24 24 25 24 24 24 22 19 17 15 13 11 8 6 3 2 4 7 9 11 14 16 18 19 20
8 10 10 9 7 3 5 8 3 2 11 22 24 27 28 26 24 23 23 23 23 23 23 24 24 24 23 23 22 21 20 18 16 14 12 9 7 4 1 4 7 9 11 14 16 18 20 22 22

GFSSGP_850_spd_303.txt.gz
Wind_Speed
7 8 6 3 3 5 3 2 5 5 5 13 13 18 13 11 3 6 23 15 15 19 18 17 16 15 15 15 14 14 12 14 12 12 13 16 17 18 19 20 19 20 20 21 21 21 20 20 21
10 9 4 1 4 2 5 0 8 6 11 16 18 13 12 5 15 23 23 16 13 19 19 17 17 16 14 15 15 14 13 14 14 14 16 16 18 17 18 18 18 19 19 19 19 19 19 19 19
10 9 3 4 3 4 4 3 8 12 17 9 6 14 8 11 26 21 20 17 14 18 18 17 16 16 14 14 14 14 15 14 15 15 16 15 16 16 16 17 17 17 17 17 17 18 18 18 20
7 5 2 3 4 6 9 7 11 8 11 8 17 7 10 10 18 23 22 18 14 19 17 16 16 16 14 14 14 13 13 14 14 13 14 14 14 15 15 15 14 14 14 15 15 15 16 16 17
7 3 1 2 3 1 3 21 20 6 8 14 13 5 8 16 18 26 23 19 16 17 14 17 17 15 15 15 14 13 12 13 12 12 12 13 13 13 13 12 12 11 12 12 13 13 14 14 15
3 1 2 3 4 4 5 21 21 11 14 16 17 11 9 22 26 27 23 22 17 16 16 17 18 17 15 15 14 13 12 12 11 11 10 11 11 10 10 9 9 9 9 10 11 12 12 13 14
4 4 4 4 4 4 7 15 15 12 13 8 23 6 18 25 27 26 23 20 17 13 18 18 18 17 16 14 14 13 12 12 11 10 9 9 8 8 7 7 7 7 7 8 9 10 11 12 12
4 4 3 3 6 5 10 11 19 25 7 18 21 8 12 30 28 25 22 20 16 13 18 17 17 16 16 16 14 13 12 11 10 10 9 7 6 6 5 4 5 6 6 7 8 9 9 10 11
3 3 4 5 6 4 17 7 7 15 17 8 5 20 28 33 30 26 24 20 16 17 12 16 16 15 14 14 14 11 11 10 10 9 8 6 6 5 5 5 5 6 7 7 7 7 7 7 8
3 4 8 4 5 8 11 17 15 8 13 10 19 19 40 34 33 31 28 24 21 20 16 12 14 15 12 12 12 11 10 9 8 8 6 6 5 4 5 6 6 7 7 8 7 4 3 4 3
5 5 3 5 8 26 16 11 8 21 3 17 32 40 37 33 33 29 27 23 24 23 21 16 13 12 11 9 11 11 10 9 5 6 6 6 2 5 5 7 6 6 6 6 5 5 5 3 2
1 11 6 3 5 7 12 16 9 17 9 23 27 35 36 34 34 31 27 23 25 25 23 20 19 16 14 11 12 10 9 7 9 9 6 5 4 6 5 3 5 4 3 4 2 1 2 2 2
7 5 11 3 3 5 13 8 8 10 11 27 32 32 32 33 32 28 24 23 24 27 25 24 21 18 16 15 13 12 11 11 7 11 4 7 5 8 6 4 3 3 2 2 2 2 3 4 5
11 22 2 6 2 3 9 4 9 9 18 36 34 31 30 31 31 29 28 28 27 27 27 25 24 20 18 16 14 14 12 12 10 10 7 10 7 6 5 4 4 4 3 2 3 3 3 4 4
8 7 1 2 5 3 14 3 6 19 23 34 32 29 29 31 31 30 29 31 28 26 26 28 25 23 19 18 18 16 16 15 13 10 6 12 7 6 5 2 2 3 3 4 4 5 5 6 6
10 6 4 4 7 2 4 8 6 22 23 27 28 28 26 29 30 25 25 24 24 22 24 31 26 21 23 19 23 20 17 16 15 11 10 8 8 7 6 3 1 2 5 5 4 5 5 6 7
0 6 6 1 11 3 4 6 9 25 22 23 24 30 27 23 25 26 27 27 23 20 21 28 28 23 23 23 21 20 19 15 12 9 11 12 8 9 5 4 3 4 5 4 4 5 7 7 9
7 5 6 7 8 5 6 3 1 24 24 25 25 24 27 28 25 25 24 21 19 17 19 23 27 26 24 21 19 18 17 16 14 11 9 10 9 6 8 6 6 6 4 5 6 7 9 10 11
6 6 6 7 8 7 10 7 6 9 14 15 26 26 25 25 26 30 30 26 22 17 17 19 25 26 25 23 22 20 18 18 15 13 12 11 10 9 8 7 6 5 5 6 7 7 8 9 12
5 7 5 2 4 5 5 7 7 8 8 20 28 28 28 28 26 30 32 29 27 24 21 19 19 22 24 23 20 18 15 18 16 17 12 13 11 8 7 7 7 7 7 7 8 9 8 8 11
7 7 5 5 5 3 7 4 4 5 7 14 23 30 29 32 32 31 31 31 30 28 28 23 20 19 22 23 20 16 14 16 19 19 17 16 12 8 6 5 5 6 7 6 9 9 8 8 7
15 9 6 10 7 5 6 5 7 7 9 7 18 28 29 29 31 32 32 34 34 31 29 28 23 20 20 23 23 20 21 19 18 16 16 14 11 8 4 2 4 7 7 9 7 6 6 7 8
7 6 10 8 10 6 4 3 6 12 8 8 17 26 27 27 28 29 32 35 35 36 32 29 28 24 21 21 23 24 23 20 18 17 17 14 12 9 7 3 7 8 8 8 5 4 5 7 8
6 7 6 5 3 0 7 8 5 8 12 17 10 27 28 27 26 27 27 28 32 37 37 31 31 28 25 25 25 25 24 24 22 20 18 17 13 10 10 6 9 8 9 6 4 4 5 6 7
7 9 2 1 0 5 4 4 8 5 12 13 20 31 30 30 30 29 27 26 27 31 35 36 34 29 29 29 27 25 25 24 21 18 20 19 15 12 12 9 8 8 5 4 3 4 5 7 9
16 13 6 8 5 4 0 7 6 1 7 12 28 35 35 31 27 25 24 24 26 27 32 36 35 30 32 32 30 28 27 25 24 23 23 21 16 14 12 9 8 6 4 3 4 5 7 9 10
7 11 7 6 1 4 5 4 2 2 6 12 24 33 34 30 27 23 21 20 22 25 30 32 33 33 32 32 31 29 29 30 28 26 24 21 18 14 11 9 7 5 4 4 4 6 8 10 11
14 8 6 1 8 5 4 5 7 5 8 7 14 25 32 29 26 22 20 19 18 20 26 29 31 31 32 31 31 30 32 30 28 27 26 22 19 13 11 9 7 5 4 4 6 8 9 11 12
4 12 3 5 5 9 3 6 7 16 15 20 19 29 36 34 28 25 23 21 21 21 23 27 29 31 32 30 30 31 30 29 28 27 22 20 14 13 10 8 6 4 4 6 7 9 10 12 13
3 10 7 8 12 3 5 6 3 1 10 17 21 26 32 30 27 26 25 24 24 24 25 27 28 29 29 29 30 30 29 26 23 21 17 16 15 13 10 8 6 4 6 7 9 10 12 14 15

GFSSGP_850_spd_306.txt.gz
Wind_Speed
5 8 5 4 3 4 2 4 1 4 3 6 15 14 11 6 2 4 23 18 18 21 20 18 17 17 18 17 17 16 15 13 13 15 17 16 19 19 18 19 21 22 22 22 21 20 19 19 17
8 8 4 4 4 2 4 3 6 4 18 23 17 12 9 3 10 23 28 18 20 21 21 20 18 17 17 17 15 15 15 13 15 17 19 18 19 19 19 20 20 21 21 21 20 19 18 15 15
9 7 3 4 3 4 4 4 6 7 16 8 7 14 7 7 23 30 22 22 21 22 22 20 20 18 17 17 16 15 14 15 17 17 18 18 18 18 18 18 18 18 18 18 18 18 16 15 15
9 5 3 4 4 4 7 9 8 8 9 8 21 8 13 12 19 21 23 20 23 23 22 20 19 18 17 17 16 15 15 15 15 15 16 16 16 16 16 16 15 15 15 16 16 16 15 14 12
8 3 4 2 4 3 4 7 12 6 6 13 9 4 6 22 16 26 21 19 22 23 22 21 18 18 17 16 16 15 14 15 14 14 14 15 14 14 14 13 13 13 13 14 14 15 14 12 11
3 3 4 3 4 1 1 16 13 6 9 14 16 11 6 23 24 24 19 17 21 22 21 21 19 18 17 17 15 15 14 14 13 12 12 13 13 12 11 10 10 11 11 12 13 13 13 11 10
3 2 7 4 3 3 7 16 13 10 10 6 25 6 16 33 26 24 24 20 18 16 20 21 20 19 18 16 16 15 14 13 12 11 10 11 11 10 9 9 9 9 10 10 11 12 12 11 9
3 3 5 4 5 6 7 13 19 25 5 26 21 7 16 32 31 26 25 20 17 16 20 21 21 20 18 17 15 15 14 13 11 11 10 9 9 8 7 7 8 8 9 9 9 9 10 11 10
3 2 4 7 7 4 13 6 16 10 22 7 10 20 30 35 32 29 27 23 18 18 20 20 20 19 17 16 15 15 14 13 12 11 9 8 7 6 7 7 7 8 8 8 8 7 6 8 9
4 3 8 7 6 6 9 17 17 10 12 6 11 13 41 36 35 33 30 25 21 21 21 20 19 19 18 17 16 14 13 12 10 9 7 7 8 6 7 7 8 8 8 7 6 4 3 3 5
7 5 5 3 3 14 14 13 6 23 1 16 28 38 42 38 34 32 28 25 23 22 21 20 20 17 17 17 16 15 13 12 10 6 6 8 6 6 8 7 6 7 6 4 4 3 3 2 1
4 10 5 5 4 14 8 16 7 12 9 21 25 37 44 40 37 34 30 26 25 24 20 16 17 17 13 13 14 14 13 11 7 7 6 6 7 7 7 4 6 3 3 3 2 2 2 1 1
7 2 3 14 4 12 15 5 8 4 13 24 32 41 42 38 37 32 27 24 28 27 25 21 21 17 15 11 15 11 11 9 11 10 5 8 5 7 8 4 4 2 1 1 1 2 3 3 4
13 14 1 5 6 1 8 6 13 7 20 32 37 41 39 37 38 33 30 27 31 29 27 23 24 20 18 16 15 14 12 12 9 13 5 10 8 5 5 3 3 2 3 3 3 3 2 2 3
3 4 2 4 5 3 12 2 5 20 31 36 37 37 37 36 36 35 31 29 30 30 27 28 26 22 20 19 17 16 15 15 11 11 7 10 8 7 6 3 3 4 3 3 4 3 4 4 4
8 5 5 4 8 2 4 8 2 23 37 33 36 35 36 36 35 33 31 29 29 30 29 27 29 24 22 19 18 18 17 15 13 11 9 11 7 7 7 5 4 1 1 3 4 4 4 5 5
3 6 5 2 7 5 4 5 6 25 31 30 35 36 35 34 34 32 31 30 30 29 30 29 28 25 25 20 20 21 20 15 14 11 10 11 9 9 7 8 7 4 4 4 4 4 5 6 6
8 6 3 7 6 2 5 4 2 26 31 33 36 36 36 36 36 33 32 32 30 28 27 28 31 27 28 23 22 22 20 18 15 12 12 12 10 10 9 6 6 6 5 5 5 6 7 8 8
6 9 6 3 6 5 8 7 6 13 14 20 32 36 36 34 32 33 31 28 28 25 25 28 36 31 28 30 27 24 23 20 16 13 12 12 11 9 9 9 6 6 6 6 6 7 7 8 10
6 8 5 2 4 5 4 8 2 6 7 24 33 32 36 35 33 35 34 31 31 27 25 29 35 33 30 27 24 22 21 20 18 16 15 14 12 12 9 7 7 7 7 8 7 7 7 7 9
3 8 6 5 4 3 5 5 6 5 5 17 25 33 35 40 38 37 38 37 32 31 27 25 29 31 29 26 23 21 19 22 22 20 17 17 14 12 9 7 5 4 5 5 7 7 5 3 5
8 6 6 8 6 5 6 5 6 7 9 7 24 33 37 36 35 36 39 40 38 35 29 26 24 25 26 27 27 26 26 27 25 23 20 18 15 12 9 7 3 4 5 6 6 4 3 4 4
6 7 8 7 6 5 3 3 6 10 11 9 13 32 37 38 38 38 39 38 37 36 35 33 29 24 22 27 27 26 24 21 22 22 21 19 17 14 11 7 4 5 7 7 5 4 4 4 5
6 7 6 5 4 3 7 8 5 7 14 10 16 31 39 39 40 38 38 37 36 35 34 36 34 28 25 23 26 27 23 22 22 21 21 19 18 16 12 9 7 7 8 6 4 3 3 4 5
6 11 1 1 1 5 5 6 9 7 12 16 22 36 42 40 41 40 39 39 38 36 33 33 37 34 30 27 25 25 26 26 25 22 21 21 19 16 13 11 9 8 7 5 4 3 4 5 7
14 13 6 8 5 3 5 7 6 4 2 11 23 28 37 36 38 38 36 36 36 38 37 34 33 36 33 31 29 29 28 26 25 22 20 21 20 18 14 12 10 9 8 6 5 5 5 7 8
7 11 7 7 3 4 5 5 4 1 3 1 18 32 42 42 40 38 34 32 32 32 34 38 36 35 35 33 32 31 30 27 25 25 24 24 23 20 17 14 11 10 8 7 6 6 6 6 8
18 9 4 1 8 5 3 5 8 5 8 5 8 24 37 44 40 35 33 31 29 30 31 33 36 38 36 34 35 34 32 29 28 29 28 27 24 21 18 15 12 10 9 8 6 6 6 7 9
4 12 3 5 5 10 3 6 7 12 13 15 16 29 34 41 40 34 29 26 25 26 28 30 32 36 37 33 35 35 32 31 31 33 32 29 25 20 18 13 12 11 8 7 6 6 8 9 11
4 13 5 8 12 1 4 6 1 2 6 11 16 24 33 41 38 32 28 26 24 24 27 29 33 35 34 34 34 32 33 31 36 32 31 29 23 17 14 15 12 9 7 6 6 7 9 10 11